Weather in Orekhovo

Russia / Volgograd Oblast     50°28′24″N   44°25′27″E
temp.,
°C
wind,
m/s
gust,
m/s
humid.,
%
clouds,
%
prec.,
mm/h
press.,
hPa
HPBL,
m
28 september, tue
tue2800:00+7nnw379273 0.0 1016157
03:00+8n3789100 0.1 1017355
06:00+7nne3683100 0.0 1018347
09:00+8n4574100 0.0 1020695
12:00+10ne5467100 0.1 10211003
15:00+8ne5565100 0.1 1023763
18:00+7ne5874100 0.0 1025804
21:00+7nne376896 0.0 1026513
29 september, wed
wed2900:00+7n3566100 0.0 1027228
03:00+5n376829 0.0 1027207
06:00+2n377879 0.0 1029165
09:00+7nne56585 0.0 1029631
12:00+10ne55435 0.0 10291523
15:00+11ne563918 0.0 10281768
18:00+7ene345144 0.0 102958
21:00+6nne225518 0.0 103026
30 september, thu
thu3000:00+4nne22625 0.0 103115
03:00+4nne22645 0.0 103113
06:00+3ne22685 0.0 103220
09:00+8ne34535 0.0 1033503
12:00+11ne33405 0.0 10331591
15:00+12nne33365 0.0 10321748
18:00+8nne22475 0.0 103311
21:00+6ese11555 0.0 103410
1 october, fri
fri100:00+5w00595 0.0 103410
03:00+4nnw11635 0.0 103410
06:00+4n22685 0.0 103511
09:00+9n23535 0.0 1035345
12:00+12nne23435 0.0 10341381
15:00+13nne234226 0.0 10331478
18:00+9n33575 0.0 103443
21:00+8nnw126389 0.0 103411
2 october, sat
sat200:00+9nw2263100 0.0 103431
03:00+9nw2268100 0.0 103436
06:00+9nnw2273100 0.0 103442
09:00+11n2372100 0.0 1034237
12:00+13nne2266100 0.0 1034551
15:00+14n125854 0.0 10331035
18:00+11n227010 0.0 103313
21:00+11nne117482 0.0 103418